Wind_Speed
23 23 23 23 23 24 25 27 28 28 28 28 28 28 28 29 29 31 32 33 33 33 34 35 34 33 32 31 30 29 29 28 28 27 27 26 25 24 25 25 25 25 24 22 20 18 17 16 15 15 14 14 13 14 15 15 14 13 13 13 12 12 12
24 22 23 24 25 25 26 29 29 29 29 29 29 29 29 28 27 28 30 31 31 32 33 34 34 34 33 32 31 30 30 29 29 28 28 27 26 25 25 26 26 26 25 24 21 20 18 17 17 16 16 16 16 16 16 17 16 15 15 14 14 14 14
25 21 20 23 26 26 27 30 30 29 29 29 30 30 30 29 27 27 28 28 29 30 32 34 34 34 33 33 32 31 31 30 29 29 28 27 26 26 26 26 26 27 26 25 23 21 19 18 17 17 17 18 18 18 18 19 19 18 17 16 16 16 15
25 21 19 21 25 26 27 29 31 31 29 29 30 31 30 29 28 27 27 27 28 29 30 32 33 34 33 33 33 32 31 30 30 29 28 27 26 26 27 27 27 27 26 25 23 22 20 19 19 18 19 19 19 19 19 20 21 20 20 19 18 18 17
25 22 20 20 24 26 27 28 31 33 31 29 29 30 29 29 29 28 27 28 28 28 29 30 32 33 34 34 33 33 32 31 30 30 29 28 28 27 27 27 26 25 25 24 23 22 21 20 19 19 19 19 20 20 21 21 22 22 22 21 20 20 19
27 24 22 21 22 25 26 26 29 32 32 30 28 28 28 29 30 29 28 28 28 29 29 30 31 32 34 34 34 33 33 32 32 31 30 29 29 28 27 26 25 25 24 24 23 23 22 21 20 19 19 19 20 21 21 22 23 23 24 23 22 21 21
28 25 23 22 21 22 23 25 28 30 32 32 31 29 28 29 29 29 29 29 28 29 30 30 31 31 33 35 35 33 33 33 32 32 32 31 30 29 28 27 26 25 25 24 24 24 23 22 21 19 18 19 19 20 21 21 22 23 25 25 24 23 22
26 25 24 22 21 21 21 23 26 27 31 34 34 32 29 28 28 29 29 29 29 29 30 30 30 31 32 34 34 34 33 33 33 33 33 33 32 31 29 28 27 26 26 25 25 24 24 23 21 20 18 18 18 19 19 20 21 22 24 25 25 25 24
26 24 22 21 21 20 20 23 25 26 28 31 33 33 32 30 28 28 29 29 29 30 31 30 30 30 31 32 33 34 34 33 33 33 34 34 33 32 31 30 29 28 27 26 26 25 24 24 22 20 19 18 18 18 19 19 20 21 23 24 25 26 25
28 24 22 22 22 20 20 24 27 27 27 27 30 33 34 33 30 28 28 29 30 30 31 31 30 30 31 31 32 33 34 34 34 34 34 34 34 33 32 31 30 29 28 27 27 27 26 25 23 21 20 19 18 18 18 19 19 20 21 22 24 25 25
30 27 25 25 23 21 21 25 28 30 28 26 27 29 32 33 33 31 29 28 29 30 30 31 31 31 31 31 32 33 34 34 34 34 34 34 33 33 33 32 31 30 29 29 28 28 27 26 25 23 21 19 18 18 18 18 19 20 20 20 21 23 24
27 28 26 25 25 24 23 24 28 31 30 29 28 26 28 30 33 33 31 29 29 29 30 31 31 31 31 30 31 32 33 34 35 34 33 33 33 33 33 33 32 30 29 29 28 28 28 28 26 24 22 20 19 18 18 18 18 19 19 19 19 20 22
25 26 26 25 26 26 24 23 26 30 31 30 30 27 26 27 31 33 33 30 29 29 30 31 31 31 30 30 30 31 32 33 33 33 32 32 32 33 33 33 32 31 30 29 29 29 28 28 27 26 24 22 20 20 19 19 19 19 18 18 18 19 19
27 27 28 28 29 29 28 25 25 28 30 31 29 27 25 25 29 31 32 32 31 29 29 31 32 31 29 29 29 29 30 31 31 32 32 32 32 32 33 32 31 31 30 30 29 29 28 28 28 27 26 24 22 21 21 21 20 19 19 18 18 17 17
26 27 28 29 30 32 32 31 28 27 30 31 29 26 25 25 28 30 32 33 32 30 29 30 32 32 30 29 28 27 27 29 30 30 31 31 32 32 32 32 31 31 31 30 30 29 29 28 28 28 27 26 24 24 23 23 22 21 20 19 18 17 17
23 26 28 29 30 31 34 36 33 29 30 32 30 27 25 25 27 29 30 32 32 31 30 30 31 32 32 29 27 26 26 26 27 29 30 31 31 32 32 32 31 31 30 30 30 29 29 29 29 29 28 27 26 26 25 24 23 22 21 21 20 19 19
21 24 29 31 31 31 33 38 38 33 32 33 32 29 26 25 27 29 30 30 31 31 31 30 30 32 32 30 28 28 27 26 26 28 29 29 30 31 31 31 31 31 30 30 30 30 29 29 29 29 28 29 28 28 27 25 23 23 23 23 22 21 21
21 22 26 30 33 34 36 39 42 38 33 33 34 31 27 25 28 30 29 29 31 31 31 30 30 30 30 30 30 30 29 28 27 27 27 28 28 29 29 30 30 30 30 30 30 30 30 30 30 29 29 29 29 28 27 25 24 24 25 25 24 23 22
20 20 23 28 35 38 40 43 46 42 35 33 34 32 27 26 29 30 29 29 31 31 31 30 29 28 29 30 30 30 30 29 27 26 26 26 27 27 27 28 28 28 28 29 29 29 30 30 30 30 30 29 29 28 28 26 25 25 25 26 25 25 24
20 21 24 31 38 42 43 45 47 45 39 35 35 34 29 28 30 30 30 31 32 32 30 29 29 28 28 28 28 29 30 29 27 26 25 25 25 25 25 26 26 26 26 27 28 29 29 29 30 30 30 29 29 28 28 27 26 26 26 26 27 27 27
20 22 23 30 37 40 41 42 43 45 42 38 38 37 32 30 30 31 31 32 32 31 30 30 30 29 27 26 27 28 28 27 26 25 24 24 24 25 25 25 24 25 25 25 26 26 27 27 28 28 28 28 28 28 28 27 26 26 27 27 28 29 30
21 21 19 25 29 32 33 33 38 44 44 42 42 39 33 31 32 31 32 33 33 32 31 30 30 30 28 27 26 25 25 25 25 24 24 24 24 25 25 25 25 24 24 24 25 25 25 26 26 26 26 26 27 27 27 26 26 27 27 28 29 30 32
21 18 16 21 25 28 29 30 37 44 47 47 45 38 34 33 33 32 33 34 33 32 32 31 30 31 30 29 27 26 25 25 24 24 24 24 24 24 24 24 24 24 24 24 25 25 25 25 25 25 24 25 26 26 25 25 25 26 27 28 30 31 32
23 15 14 20 23 27 28 31 37 43 46 47 42 36 35 35 33 33 34 34 33 33 32 31 30 30 31 32 31 30 29 28 27 26 26 25 24 24 24 23 23 23 23 24 24 24 24 24 25 25 25 25 26 26 26 25 26 27 28 29 30 32 33
24 14 13 19 22 27 29 31 35 38 40 40 37 35 35 33 32 33 34 34 33 33 32 31 30 30 31 32 33 33 33 32 31 30 29 28 27 27 26 26 26 25 25 26 26 25 24 24 24 25 25 25 26 26 26 26 27 28 29 29 30 32 33
23 15 14 19 20 25 28 28 30 32 34 34 33 33 33 31 31 33 33 33 33 33 32 31 29 29 30 31 32 33 34 34 33 32 31 30 30 30 29 29 29 29 29 29 29 29 28 27 27 26 25 25 25 25 25 26 26 27 28 29 30 32 33
22 16 15 19 18 22 26 25 26 29 32 33 33 32 31 30 30 32 33 33 34 34 32 30 29 30 31 31 32 32 32 31 31 30 30 30 30 30 30 30 30 30 30 31 31 31 31 30 30 29 28 27 26 25 25 25 25 25 27 28 29 31 32
21 17 17 20 18 20 23 23 26 31 34 36 34 31 29 29 30 31 33 33 34 33 32 31 31 32 32 32 31 30 29 28 28 28 28 29 29 28 28 28 29 29 30 30 31 31 31 32 32 31 31 30 30 29 28 26 26 25 26 27 28 30 31
21 18 18 21 19 20 21 23 28 34 37 37 35 31 29 29 30 30 31 31 32 32 32 32 32 31 31 31 30 29 29 28 28 28 27 27 27 27 27 28 28 28 29 30 30 31 31 32 32 33 33 33 33 32 31 30 29 28 27 26 27 29 30
20 19 19 21 20 20 21 24 29 34 36 36 34 32 30 29 29 28 28 30 31 33 32 32 31 31 30 30 28 27 27 26 26 25 25 25 26 26 26 27 27 28 29 29 30 30 30 31 32 32 33 33 34 34 34 33 33 31 30 28 28 28 29
19 19 20 21 21 21 23 25 28 31 34 35 34 33 32 30 28 28 29 31 32 31 31 30 30 29 27 25 23 21 21 21 22 22 23 23 24 24 25 26 26 27 28 28 28 28 27 28 29 29 30 31 32 32 33 34 35 35 33 32 31 31 31
18 19 20 21 22 23 25 26 27 29 33 35 35 34 32 31 29 29 30 31 30 28 28 28 27 26 23 20 17 17 18 19 20 21 22 23 23 23 24 25 24 24 24 24 24 24 23 23 24 24 25 27 27 28 30 31 32 33 33 34 35 35 35
18 20 21 23 24 25 27 28 28 30 33 35 35 34 33 32 31 31 31 30 28 26 26 26 25 25 23 19 16 16 17 17 19 20 20 19 20 21 21 22 22 21 21 21 21 20 20 19 19 19 19 20 22 23 25 25 26 28 29 31 33 35 37
19 21 22 24 26 27 28 29 29 30 34 35 35 34 33 33 33 33 31 30 29 28 26 25 24 23 23 23 23 21 19 17 17 19 17 16 16 16 16 17 18 18 18 18 18 18 17 17 17 16 16 17 18 20 20 21 21 22 24 25 27 30 33
21 21 22 24 26 27 29 30 30 30 32 33 34 34 33 32 33 33 32 31 31 30 27 25 24 22 22 24 26 26 23 20 19 19 18 17 17 17 16 17 17 18 18 17 17 17 16 16 16 16 16 17 17 18 19 19 19 21 23 24 25 26 27
25 24 23 24 25 27 28 29 29 29 30 31 33 34 33 32 32 32 31 31 30 29 27 25 22 20 20 22 23 23 23 22 21 21 21 20 21 20 19 19 19 19 19 19 19 18 18 18 18 18 19 19 19 20 20 21 21 22 24 24 24 25 25
26 27 26 25 26 26 27 28 28 28 29 30 31 33 33 32 31 31 30 29 28 27 27 24 21 21 22 23 22 21 21 21 21 22 23 24 25 25 25 24 23 23 23 22 22 22 21 21 21 22 22 22 22 23 23 23 24 25 25 25 26 26 26
25 26 26 26 27 28 27 27 27 27 28 29 30 32 33 33 33 32 31 30 28 27 26 24 23 23 24 23 22 21 21 21 21 21 22 24 26 27 28 28 28 27 27 26 26 26 25 24 24 25 25 25 25 25 26 26 27 27 28 28 28 28 28
Wind_Direction
251 254 249 242 236 231 227 225 225 226 227 229 228 226 222 220 219 218 219 220 219 217 215 215 214 214 214 213 212 212 212 212 212 213 213 213 213 212 212 211 211 212 215 218 217 215 215 216 216 214 214 215 215 217 218 218 220 223 225 222 215 209 204
248 252 249 243 236 228 225 225 224 222 223 225 226 225 223 220 218 218 219 220 220 219 218 217 217 216 215 214 213 213 213 212 212 212 212 212 211 211 211 211 210 211 214 217 219 219 220 221 219 217 216 216 216 217 217 216 218 221 224 223 220 216 212
245 248 248 245 239 231 226 224 222 219 218 220 221 222 221 220 219 219 220 221 221 220 219 218 218 217 217 216 214 214 214 213 213 213 213 212 211 211 211 210 210 211 213 216 218 221 222 223 222 219 217 217 217 217 216 216 217 218 221 222 221 219 218
243 244 245 244 241 237 231 226 223 220 217 216 217 219 220 220 221 221 221 223 223 223 221 220 219 218 218 217 216 215 215 214 213 213 213 212 210 211 212 211 211 212 214 216 218 221 223 223 223 220 218 218 218 218 217 216 217 218 220 221 220 220 220
241 241 241 240 240 241 237 230 226 223 219 217 217 217 218 219 221 221 221 223 224 225 225 224 222 221 220 219 218 217 216 215 214 213 213 212 211 212 213 213 213 214 215 216 218 220 222 223 222 220 219 219 219 220 218 217 217 219 221 222 222 221 221
242 242 240 238 239 242 241 234 230 227 223 221 220 218 217 217 218 218 219 222 224 225 225 225 224 223 221 220 220 218 216 215 214 214 214 214 213 214 215 215 214 214 214 215 217 219 221 222 222 221 221 221 222 223 222 220 219 219 222 224 224 223 222
244 244 242 239 238 242 242 237 233 230 227 225 224 223 220 220 219 217 216 218 221 225 226 225 224 223 222 221 221 220 218 216 215 214 215 216 216 215 216 216 215 214 214 214 216 218 220 222 223 222 223 224 225 226 226 225 224 222 223 224 225 225 224
244 246 245 241 242 246 240 233 230 229 228 227 227 226 223 222 221 219 216 214 217 222 226 227 226 224 222 222 222 221 220 218 217 216 217 218 218 217 216 216 216 215 214 213 215 218 220 223 224 224 223 225 225 225 226 226 226 226 225 224 225 226 226
245 246 244 241 243 245 235 225 225 225 225 226 227 227 226 225 223 220 217 214 214 219 224 227 228 226 225 224 223 222 222 220 218 218 219 220 220 219 218 217 217 217 215 214 215 218 220 223 225 225 223 224 223 223 223 223 223 225 225 224 224 225 226
242 243 243 242 243 244 232 220 220 222 221 222 225 226 226 226 224 222 219 215 215 218 221 224 227 227 227 226 225 224 223 222 220 219 220 221 221 220 219 219 219 219 218 216 216 217 220 223 225 225 223 222 221 221 221 219 219 221 222 222 222 223 225
241 242 244 243 243 243 236 222 217 220 221 221 223 226 226 226 225 225 221 216 215 216 218 221 225 227 227 227 226 224 224 223 221 220 220 221 222 222 221 222 222 222 221 219 219 218 220 223 224 225 224 221 220 221 221 218 216 218 219 219 219 220 222
234 236 237 238 238 240 239 226 217 218 221 221 221 223 225 224 224 225 222 217 216 215 216 220 222 225 227 227 226 224 224 223 222 221 220 221 223 223 223 224 224 224 224 223 222 221 221 223 225 226 225 222 220 220 219 218 216 215 215 215 214 215 218
225 229 231 233 235 237 239 234 221 216 218 220 220 220 221 221 222 224 222 218 216 215 216 218 220 224 226 227 227 225 224 224 224 223 222 221 222 223 224 225 225 225 226 226 226 225 224 225 227 228 227 224 221 220 219 218 215 213 211 209 208 209 213
226 231 233 235 238 240 240 238 229 219 216 218 219 217 216 217 220 222 221 219 216 214 215 216 218 221 224 226 227 226 224 224 225 225 224 223 223 224 225 226 226 226 227 227 228 228 227 228 229 229 229 227 223 222 221 220 218 214 209 205 204 204 206
232 231 232 233 237 240 241 240 235 225 216 216 217 215 212 213 217 219 220 219 216 213 213 216 217 218 221 225 227 226 225 225 225 226 226 226 225 225 225 226 227 227 227 228 229 230 230 230 231 231 230 230 227 224 224 223 221 217 212 207 204 203 205
246 236 232 233 235 236 239 240 237 228 218 215 217 217 212 210 214 217 218 218 216 213 212 215 217 217 219 224 226 227 227 227 226 226 226 227 227 226 227 227 228 228 228 228 229 230 231 232 232 232 232 232 231 229 227 226 225 221 216 211 208 207 209
259 246 239 237 237 234 234 237 236 230 221 216 218 221 219 213 212 215 216 215 213 212 211 213 216 217 218 221 224 226 227 228 227 226 226 227 227 228 228 229 230 230 230 230 230 231 232 233 233 233 234 234 234 233 232 230 227 223 219 216 212 212 214
264 254 245 241 240 236 233 234 234 230 222 215 218 223 222 214 211 213 214 210 207 209 209 210 214 217 217 219 221 223 226 227 227 226 226 226 227 228 229 230 231 231 231 231 232 232 233 234 235 235 235 236 236 236 236 234 229 224 221 219 217 217 219
266 264 258 246 238 234 232 232 231 228 219 212 216 221 219 214 213 213 211 206 203 205 207 207 210 214 216 218 219 220 223 225 226 226 226 226 227 228 229 230 230 230 231 232 232 233 234 235 236 236 237 237 237 238 240 238 233 228 225 222 221 222 225
270 277 268 245 233 230 230 230 228 223 215 211 214 219 218 215 213 211 208 203 200 201 203 203 205 210 214 215 215 216 218 221 223 224 224 224 225 226 226 227 227 227 229 230 231 232 233 234 236 236 237 238 239 240 241 240 237 233 230 226 225 226 229
280 285 266 239 229 228 229 228 223 216 212 211 214 216 216 213 211 208 205 201 198 198 200 201 203 208 211 211 211 212 214 216 218 220 220 221 222 223 223 223 224 225 226 228 229 231 232 234 235 236 237 238 240 240 241 241 239 236 234 231 229 229 232
290 288 255 227 218 216 218 219 213 208 207 211 215 215 213 210 208 205 202 199 197 197 198 199 202 205 207 207 208 209 209 210 213 214 216 217 219 221 222 222 223 224 226 228 229 231 232 233 234 236 236 237 238 239 239 239 238 237 235 234 233 233 234
294 286 237 211 207 205 205 206 204 203 205 210 213 212 209 207 206 202 200 197 196 196 197 198 200 204 207 207 207 207 207 207 209 210 212 215 218 220 222 224 225 227 228 230 232 232 233 234 236 237 237 237 238 239 239 237 236 236 235 234 235 236 237
292 282 216 196 197 197 197 199 200 202 205 208 208 204 203 205 204 199 197 196 195 196 196 198 200 203 207 210 210 210 210 210 211 213 214 217 220 223 225 227 228 230 231 233 234 235 236 236 237 237 237 237 238 238 238 237 235 235 235 234 235 237 238
288 275 203 186 188 187 188 193 196 197 200 201 198 196 199 202 200 196 195 195 195 195 196 199 202 205 209 212 213 214 215 216 217 219 221 223 226 228 230 232 233 234 235 236 237 237 237 237 237 237 236 237 238 237 238 237 236 236 237 237 238 240 242
284 268 200 181 185 185 185 189 191 190 191 191 190 193 197 197 195 192 192 193 194 196 198 201 203 206 209 210 211 213 216 218 220 222 225 228 230 232 233 235 236 237 238 239 239 239 239 239 240 240 239 239 240 239 238 238 237 237 238 239 240 242 245
281 267 207 182 186 191 190 191 189 186 185 186 188 192 193 191 189 190 191 193 195 198 200 202 203 205 207 208 210 212 215 217 219 222 225 227 229 231 233 235 236 237 238 239 240 240 241 241 241 242 242 242 242 241 240 239 239 238 238 239 239 241 244
275 264 213 185 186 196 199 199 192 187 186 187 189 191 188 185 187 190 193 195 197 199 200 201 203 205 206 207 209 211 212 214 216 218 221 223 226 228 231 232 234 236 237 238 239 240 240 241 241 242 242 241 241 242 241 240 240 239 238 239 239 241 243
269 259 217 189 187 194 197 199 194 189 187 188 188 188 185 185 189 194 197 197 197 197 199 201 203 205 206 207 208 208 209 211 212 215 217 219 222 225 228 231 233 235 236 237 239 239 240 240 240 241 240 240 241 241 241 241 241 240 240 240 241 243 245
260 251 217 193 190 192 190 189 188 186 186 185 186 186 186 189 196 199 197 194 194 196 198 200 202 203 203 204 205 206 207 209 211 214 216 218 221 225 228 232 235 236 237 237 238 238 239 239 240 240 240 240 240 241 241 242 242 242 241 241 243 245 247
246 238 214 193 188 188 185 182 181 181 183 183 184 185 187 192 197 197 192 191 194 197 198 198 199 199 199 200 202 206 211 214 216 219 221 224 227 230 233 236 239 240 241 241 242 242 241 241 242 242 242 241 241 241 241 242 243 243 243 242 243 245 246
232 221 205 190 184 183 182 180 178 179 180 181 183 186 187 189 192 191 190 191 195 197 196 195 194 193 191 193 200 209 215 219 222 223 226 229 232 234 236 239 241 243 243 243 245 246 246 246 245 245 245 245 244 243 243 243 244 245 244 243 243 243 244
217 208 197 185 180 180 178 177 177 177 177 179 182 185 186 188 189 188 187 190 194 195 194 194 194 193 194 201 213 220 218 218 219 218 219 224 229 233 236 238 238 238 236 236 238 241 243 245 245 246 247 248 247 247 246 247 248 249 248 246 245 245 244
201 200 194 184 179 178 176 174 174 176 176 177 181 184 185 187 189 188 188 190 192 193 195 198 202 206 210 216 223 225 219 214 214 214 214 219 224 228 233 238 238 237 234 233 234 236 238 240 241 243 245 247 248 249 249 250 252 254 256 255 252 249 247
190 192 192 187 182 179 177 173 172 174 176 178 182 184 185 187 189 191 191 192 193 196 199 203 209 216 219 218 219 221 221 216 213 214 218 225 227 226 229 236 240 240 237 235 234 234 237 238 238 240 242 243 245 247 249 252 256 258 261 262 261 259 256
184 186 189 188 184 182 180 176 174 176 177 179 183 186 187 188 190 193 195 196 198 200 201 202 208 215 214 211 212 216 220 220 221 224 229 235 236 234 234 238 241 240 237 237 236 236 237 238 238 239 241 242 244 247 250 253 256 258 260 262 263 265 264
181 182 183 183 182 180 179 178 178 178 178 180 183 186 188 189 190 192 194 194 194 196 196 198 203 206 205 208 211 214 219 224 230 235 240 242 242 240 239 241 243 240 238 238 238 237 238 239 239 240 241 243 245 247 250 253 256 258 261 262 262 264 264
175 176 175 176 176 175 174 176 177 177 178 179 182 183 184 185 185 185 187 187 189 191 192 193 197 201 205 212 217 223 231 238 240 242 245 244 241 239 238 239 241 240 239 240 240 240 242 242 241 241 243 244 245 247 249 251 253 255 257 259 259 260 262
Height
3142 3143 3145 3147 3149 3152 3154 3156 3159 3162 3164 3166 3169 3171 3173 3174 3176 3178 3180 3183 3185 3188 3190 3192 3195 3197 3199 3202 3205 3207 3209 3211 3213 3215 3217 3219 3221 3223 3224 3226 3228 3230 3232 3234 3235 3237 3238 3239 3240 3241 3242 3243 3244 3246 3247 3248 3249 3250 3251 3253 3254 3255 3255
3140 3141 3143 3145 3147 3149 3151 3153 3156 3159 3162 3164 3166 3169 3170 3172 3174 3176 3178 3180 3183 3186 3188 3190 3193 3195 3198 3200 3203 3205 3207 3209 3211 3213 3215 3217 3219 3221 3223 3224 3226 3228 3230 3232 3233 3234 3236 3237 3238 3239 3241 3242 3243 3244 3245 3246 3248 3249 3250 3252 3253 3254 3255
3138 3139 3141 3143 3145 3148 3149 3151 3153 3156 3159 3161 3163 3166 3167 3170 3172 3174 3176 3179 3181 3184 3186 3188 3190 3193 3196 3198 3200 3202 3204 3207 3209 3211 3213 3215 3217 3219 3221 3222 3224 3226 3228 3229 3231 3232 3233 3235 3236 3237 3238 3240 3241 3242 3243 3245 3246 3247 3249 3250 3251 3253 3254
3136 3137 3139 3141 3143 3146 3147 3149 3151 3153 3156 3158 3160 3163 3165 3168 3171 3173 3175 3177 3179 3181 3183 3186 3188 3191 3194 3196 3198 3200 3202 3204 3207 3209 3211 3213 3215 3217 3218 3220 3222 3224 3226 3227 3229 3230 3231 3233 3234 3235 3236 3238 3239 3240 3241 3243 3244 3245 3247 3248 3250 3251 3252
3133 3135 3137 3138 3140 3142 3144 3147 3149 3150 3153 3155 3158 3160 3163 3167 3169 3171 3173 3175 3177 3179 3182 3184 3186 3189 3191 3193 3196 3198 3200 3203 3205 3207 3209 3211 3213 3214 3216 3218 3220 3222 3224 3226 3227 3228 3230 3231 3232 3233 3234 3236 3237 3238 3239 3241 3242 3243 3245 3246 3248 3249 3251
3130 3132 3134 3136 3138 3140 3142 3145 3147 3148 3151 3152 3155 3158 3161 3164 3166 3168 3171 3173 3175 3177 3179 3182 3184 3186 3189 3191 3193 3195 3198 3200 3202 3205 3207 3209 3211 3212 3215 3217 3219 3221 3222 3224 3225 3226 3228 3229 3230 3231 3232 3234 3235 3236 3238 3239 3240 3241 3242 3244 3245 3247 3249
3127 3129 3131 3133 3135 3137 3140 3142 3144 3146 3148 3150 3153 3155 3158 3161 3163 3166 3169 3170 3173 3174 3176 3178 3181 3183 3186 3188 3191 3193 3196 3198 3200 3203 3205 3207 3209 3210 3213 3215 3217 3219 3220 3221 3223 3224 3226 3227 3228 3230 3231 3232 3233 3234 3236 3237 3238 3239 3240 3242 3243 3245 3246
3124 3126 3129 3131 3132 3134 3136 3138 3140 3143 3145 3147 3149 3152 3155 3158 3160 3163 3166 3168 3170 3172 3173 3176 3178 3180 3183 3185 3188 3191 3193 3196 3198 3200 3202 3204 3206 3208 3210 3212 3214 3216 3218 3219 3221 3223 3224 3225 3227 3228 3229 3230 3231 3232 3233 3234 3235 3237 3238 3239 3241 3243 3244
3121 3123 3126 3128 3129 3131 3133 3135 3137 3138 3141 3144 3146 3149 3152 3155 3157 3160 3163 3165 3167 3169 3171 3173 3175 3178 3180 3183 3186 3188 3191 3193 3196 3198 3200 3202 3204 3206 3208 3210 3212 3214 3215 3218 3219 3221 3222 3224 3225 3226 3227 3228 3229 3230 3231 3232 3233 3234 3235 3237 3238 3240 3241
3119 3121 3122 3125 3126 3128 3129 3131 3133 3134 3137 3140 3143 3146 3149 3151 3154 3157 3160 3163 3164 3166 3169 3171 3173 3175 3177 3180 3183 3186 3188 3190 3193 3195 3197 3199 3202 3204 3206 3208 3209 3211 3213 3215 3217 3219 3220 3222 3223 3224 3225 3226 3227 3228 3229 3230 3231 3232 3233 3235 3236 3237 3239
3116 3118 3120 3122 3124 3125 3126 3128 3130 3132 3134 3137 3140 3142 3145 3148 3151 3154 3157 3160 3162 3164 3166 3168 3170 3172 3175 3177 3180 3182 3185 3187 3190 3192 3194 3197 3199 3202 3204 3205 3207 3209 3211 3213 3215 3216 3218 3219 3221 3222 3223 3225 3226 3227 3228 3229 3229 3230 3231 3233 3234 3235 3236
3113 3115 3117 3119 3120 3122 3123 3125 3127 3130 3132 3134 3137 3139 3142 3145 3147 3150 3154 3157 3159 3162 3164 3166 3168 3170 3172 3174 3177 3179 3182 3184 3186 3189 3192 3194 3197 3199 3201 3203 3205 3207 3209 3211 3212 3214 3216 3217 3219 3220 3221 3223 3224 3225 3226 3227 3228 3229 3230 3231 3232 3233 3234
3109 3111 3113 3115 3116 3118 3119 3121 3123 3126 3129 3131 3133 3136 3139 3141 3144 3147 3150 3154 3157 3159 3161 3163 3165 3167 3170 3172 3174 3176 3179 3181 3184 3187 3189 3192 3194 3196 3198 3200 3203 3205 3207 3209 3210 3212 3213 3215 3216 3218 3220 3221 3222 3223 3224 3225 3226 3227 3228 3229 3230 3231 3232
3105 3107 3109 3111 3112 3113 3115 3117 3119 3122 3125 3128 3130 3133 3136 3138 3141 3143 3147 3150 3154 3156 3159 3161 3163 3165 3167 3169 3171 3173 3176 3179 3182 3184 3187 3189 3191 3194 3196 3198 3200 3202 3204 3206 3208 3209 3211 3213 3214 3216 3217 3219 3220 3221 3222 3223 3224 3225 3226 3228 3229 3230 3231
3101 3103 3105 3106 3108 3109 3112 3114 3116 3119 3121 3124 3127 3130 3132 3135 3137 3140 3143 3146 3150 3153 3156 3158 3160 3163 3165 3167 3169 3171 3174 3177 3179 3182 3184 3186 3189 3191 3193 3195 3197 3199 3201 3203 3205 3207 3209 3210 3212 3213 3215 3216 3218 3219 3220 3221 3222 3224 3225 3226 3227 3229 3230
3098 3100 3101 3103 3104 3106 3108 3110 3113 3116 3118 3120 3123 3126 3129 3132 3134 3137 3140 3143 3147 3150 3153 3155 3158 3160 3162 3165 3167 3170 3172 3175 3177 3179 3181 3183 3186 3188 3190 3192 3194 3196 3198 3201 3203 3204 3206 3207 3209 3210 3212 3214 3215 3216 3218 3219 3221 3222 3223 3225 3226 3227 3228
3095 3097 3098 3099 3101 3103 3105 3107 3110 3112 3115 3117 3120 3123 3126 3129 3132 3134 3137 3140 3143 3147 3150 3153 3155 3157 3160 3163 3165 3168 3170 3172 3174 3176 3178 3181 3183 3185 3187 3189 3192 3194 3196 3198 3200 3202 3203 3205 3206 3208 3209 3211 3212 3214 3215 3217 3219 3220 3222 3223 3224 3225 3226
3092 3093 3094 3096 3097 3099 3101 3103 3106 3109 3112 3115 3118 3120 3123 3126 3129 3131 3133 3136 3140 3143 3147 3150 3152 3155 3158 3160 3163 3165 3167 3170 3171 3173 3176 3178 3180 3182 3185 3187 3189 3191 3193 3195 3197 3199 3200 3202 3203 3205 3207 3208 3209 3211 3212 3215 3217 3218 3220 3221 3222 3223 3224
3087 3088 3089 3091 3092 3094 3096 3098 3102 3106 3110 3113 3116 3118 3121 3124 3126 3128 3131 3133 3137 3140 3144 3147 3150 3152 3155 3157 3160 3163 3165 3167 3169 3171 3173 3175 3178 3180 3182 3184 3186 3188 3190 3192 3194 3196 3197 3199 3201 3202 3203 3205 3207 3208 3210 3212 3214 3216 3217 3219 3220 3221 3221
3083 3084 3084 3085 3086 3088 3090 3093 3097 3101 3106 3110 3113 3115 3118 3121 3123 3125 3128 3130 3133 3137 3141 3144 3147 3150 3152 3155 3158 3160 3162 3165 3167 3169 3171 3173 3175 3177 3179 3181 3183 3185 3187 3189 3190 3192 3194 3196 3197 3199 3200 3202 3204 3205 3207 3209 3211 3213 3215 3216 3217 3218 3219
3079 3079 3079 3078 3080 3082 3084 3087 3091 3096 3102 3107 3109 3111 3114 3117 3119 3122 3124 3127 3131 3134 3138 3141 3144 3147 3150 3153 3155 3158 3160 3162 3164 3166 3168 3170 3172 3174 3176 3178 3180 3182 3184 3185 3187 3189 3190 3192 3194 3195 3197 3199 3201 3202 3204 3206 3208 3210 3212 3213 3215 3215 3216
3075 3074 3074 3073 3074 3076 3079 3082 3085 3091 3098 3102 3104 3107 3111 3114 3116 3119 3122 3125 3128 3132 3135 3139 3142 3145 3148 3150 3153 3155 3157 3160 3162 3164 3166 3168 3170 3172 3173 3175 3177 3179 3181 3182 3184 3186 3187 3189 3191 3192 3194 3196 3197 3198 3200 3203 3205 3207 3208 3210 3211 3212 3212
3071 3071 3070 3070 3071 3073 3075 3078 3081 3087 3092 3096 3100 3104 3108 3111 3113 3116 3118 3122 3125 3129 3132 3136 3139 3142 3145 3148 3150 3153 3155 3157 3159 3162 3164 3166 3167 3169 3171 3173 3175 3177 3178 3180 3181 3183 3185 3186 3188 3189 3191 3193 3194 3195 3197 3200 3202 3203 3205 3207 3207 3208 3208
3068 3069 3069 3068 3069 3071 3073 3075 3079 3083 3088 3092 3096 3100 3104 3107 3110 3113 3116 3119 3122 3126 3130 3133 3136 3140 3142 3145 3148 3150 3152 3155 3157 3159 3161 3163 3165 3167 3169 3171 3173 3174 3176 3177 3179 3180 3182 3184 3185 3186 3188 3189 3191 3192 3194 3196 3198 3199 3201 3203 3203 3204 3204
3067 3067 3067 3068 3068 3070 3072 3074 3077 3081 3084 3088 3093 3097 3100 3104 3107 3109 3113 3116 3120 3124 3127 3131 3134 3137 3140 3142 3145 3147 3149 3152 3154 3156 3158 3160 3163 3165 3167 3169 3170 3172 3173 3174 3176 3177 3179 3181 3182 3183 3185 3186 3187 3189 3190 3192 3194 3195 3197 3198 3199 3200 3200
3065 3065 3066 3067 3068 3069 3071 3074 3077 3080 3083 3087 3090 3094 3098 3101 3104 3107 3110 3114 3118 3121 3125 3129 3132 3135 3137 3139 3141 3143 3146 3148 3151 3153 3155 3157 3160 3162 3164 3166 3167 3168 3170 3171 3172 3174 3176 3177 3178 3180 3181 3183 3184 3185 3187 3188 3190 3191 3193 3194 3195 3196 3196
3063 3064 3065 3065 3067 3069 3071 3073 3076 3080 3083 3086 3089 3092 3095 3098 3101 3105 3108 3112 3115 3119 3123 3126 3129 3132 3134 3136 3138 3140 3143 3145 3148 3150 3152 3154 3156 3158 3160 3162 3163 3164 3166 3167 3169 3170 3172 3173 3174 3176 3178 3179 3180 3182 3183 3184 3186 3188 3189 3190 3191 3191 3192
3060 3062 3063 3063 3065 3067 3070 3072 3075 3078 3081 3084 3087 3090 3093 3096 3100 3103 3106 3110 3114 3118 3121 3123 3126 3128 3131 3133 3136 3138 3140 3142 3145 3147 3149 3151 3153 3154 3156 3157 3159 3160 3162 3163 3164 3166 3167 3169 3170 3172 3173 3175 3176 3177 3179 3181 3182 3184 3185 3186 3187 3187 3188
3058 3060 3061 3061 3063 3065 3068 3070 3073 3076 3079 3082 3086 3089 3092 3095 3098 3102 3105 3109 3113 3115 3117 3120 3123 3126 3129 3131 3133 3135 3137 3139 3142 3144 3146 3148 3149 3151 3152 3154 3155 3156 3158 3159 3160 3162 3163 3165 3166 3167 3169 3170 3172 3173 3175 3177 3178 3180 3181 3182 3183 3184 3184
3056 3057 3059 3060 3061 3064 3066 3068 3071 3074 3077 3081 3084 3088 3091 3094 3098 3101 3105 3108 3110 3112 3115 3118 3121 3123 3126 3129 3131 3133 3135 3138 3140 3142 3143 3145 3146 3148 3149 3150 3151 3152 3154 3155 3156 3157 3159 3160 3161 3163 3164 3166 3167 3169 3171 3172 3174 3176 3177 3179 3180 3180 3181
3054 3055 3057 3058 3060 3062 3065 3067 3070 3073 3076 3079 3083 3086 3090 3093 3097 3100 3103 3106 3108 3111 3113 3116 3119 3122 3125 3128 3130 3133 3135 3136 3138 3140 3142 3143 3144 3145 3146 3147 3148 3149 3150 3151 3153 3154 3155 3157 3158 3159 3160 3162 3163 3165 3166 3168 3169 3171 3173 3175 3176 3177 3177
3052 3054 3055 3056 3058 3061 3064 3066 3069 3072 3075 3078 3081 3085 3088 3091 3095 3099 3102 3105 3107 3110 3112 3115 3118 3121 3124 3127 3129 3131 3133 3135 3136 3138 3139 3140 3141 3143 3144 3145 3146 3147 3148 3149 3150 3151 3152 3154 3155 3156 3157 3158 3160 3161 3162 3164 3165 3167 3169 3170 3172 3172 3173
3050 3052 3054 3055 3057 3059 3062 3064 3067 3070 3073 3077 3080 3083 3086 3089 3093 3096 3100 3103 3106 3109 3111 3114 3117 3119 3122 3124 3127 3129 3131 3133 3134 3135 3136 3138 3139 3140 3141 3142 3143 3144 3145 3146 3147 3148 3149 3151 3152 3153 3154 3155 3157 3158 3159 3160 3161 3163 3164 3166 3167 3168 3169
3049 3051 3052 3054 3056 3058 3060 3063 3066 3069 3072 3075 3078 3081 3084 3087 3091 3094 3098 3101 3104 3107 3110 3112 3115 3117 3120 3122 3124 3127 3129 3130 3131 3133 3134 3135 3136 3137 3139 3140 3141 3141 3142 3144 3144 3145 3147 3148 3149 3150 3151 3152 3154 3155 3156 3157 3158 3159 3160 3161 3163 3163 3164
3049 3050 3051 3053 3055 3057 3059 3061 3064 3067 3070 3073 3077 3080 3083 3086 3089 3092 3096 3099 3101 3104 3107 3110 3112 3115 3117 3119 3121 3124 3126 3127 3129 3130 3132 3133 3134 3135 3136 3137 3139 3140 3141 3142 3142 3143 3144 3145 3146 3147 3148 3149 3151 3152 3153 3154 3155 3156 3156 3157 3158 3159 3160
3048 3049 3050 3052 3054 3056 3058 3060 3062 3065 3068 3071 3075 3078 3081 3084 3087 3091 3094 3097 3099 3102 3105 3107 3109 3113 3115 3117 3119 3121 3123 3124 3126 3127 3128 3130 3131 3132 3134 3135 3136 3137 3138 3139 3140 3141 3142 3143 3144 3145 3145 3146 3148 3149 3150 3151 3152 3152 3152 3153 3154 3154 3155
3046 3048 3050 3051 3053 3055 3057 3059 3061 3064 3067 3070 3073 3076 3079 3082 3085 3089 3092 3095 3097 3100 3102 3104 3107 3110 3113 3115 3117 3119 3120 3122 3123 3124 3125 3126 3127 3129 3130 3132 3133 3134 3135 3136 3137 3138 3139 3140 3141 3142 3142 3143 3145 3146 3147 3147 3148 3148 3148 3149 3149 3150 3150
3046 3048 3049 3051 3052 3053 3055 3058 3060 3063 3066 3068 3071 3074 3077 3080 3083 3086 3089 3092 3095 3098 3100 3102 3104 3107 3110 3112 3114 3115 3117 3118 3119 3120 3121 3123 3124 3125 3126 3128 3129 3131 3132 3133 3133 3134 3135 3136 3137 3138 3139 3140 3141 3142 3143 3143 3144 3144 3144 3145 3145 3146 3146